Location: Shannon
(40.5500°S, 175.4167°E)
Time: 11:08:35
(UTC+00:00)

ADEOS II - Pass Details

Date: 17 November 2025
Orbit: 794 x 794 km, 98.8° (Epoch: 09 December)

Event Time Altitude Azimuth Distance (km) Brightness Sun altitude
Exits shadow 14:58:04 31° 313° (NW) 1,371 2.7 -17.8°
Maximum altitude 14:59:33 37° 278° (W) 1,224 2.7 -17.6°
Drops below altitude 10° 15:04:27 10° 210° (SSW) 2,396 4.7 -17.0°
Sets 15:06:59 0° 202° (SSW) 3,334 5.6 -16.6°
